Simultaneous Nadir Overpasses (SNOs) Predictions

Prediction of SNOs between FY3D and AQUA Satellite Orbit:

Table of predicted SNOs for the next 14.0 days since TLE Epoch: 2/13/2021
Index Date (FY3D) Time (FY3D) Lat,Lon (FY3D) SZA (FY3D ) Date (AQUA) Time (AQUA) Lat,Lon (AQUA) SZA (AQUA ) Distance(km) Time Diff (sec)
1 02/14/2021 18:07:28 48.26, 121.68 136.76 02/14/2021 18:08:07 48.36, 121.15 136.86 40.92 39
2 02/14/2021 18:58:55 -46.00, -71.94 41.31 02/14/2021 18:58:16 -46.03, -72.12 41.15 14.33 39
3 02/17/2021 10:23:39 48.81,-122.15 135.44 02/17/2021 10:24:27 48.92,-122.74 135.54 44.98 48
4 02/17/2021 11:15:15 -46.04, 44.00 42.17 02/17/2021 11:14:45 -46.05, 43.77 42.00 18.30 30
5 02/17/2021 11:42:46 50.41, 17.26 62.60 02/17/2021 11:41:34 50.62, 18.42 62.91 85.03 72
6 02/20/2021 02:39:50 49.30, -6.01 134.13 02/20/2021 02:40:47 49.42, -6.66 134.23 48.87 57
7 02/20/2021 03:31:35 -46.02, 159.93 43.01 02/20/2021 03:31:13 -46.07, 159.66 42.87 21.71 22
8 02/20/2021 04:05:09 70.68, 116.40 81.52 02/20/2021 04:03:56 70.98, 118.27 81.78 76.26 73
9 02/22/2021 18:56:01 49.85, 110.17 132.73 02/22/2021 18:57:07 49.97, 109.45 132.84 52.71 66
10 02/22/2021 19:47:55 -46.05, -84.13 43.93 02/22/2021 19:47:42 -46.08, -84.46 43.77 25.52 13
11 02/22/2021 20:27:24 80.57, 144.39 100.09 02/22/2021 20:26:11 81.04, 143.06 100.34 58.29 73
12 02/25/2021 12:04:16 -46.02, 31.79 44.83 02/25/2021 12:04:11 -46.09, 31.43 44.69 28.97 5



Historial Predications of SNOs between FY3D and AQUA
